Temperature
16 16 16 16 16 16 16 16 16 15 15 15 15 15 15 15 15 15 15 15 15 14 14 14 14 14 15 15 15 15 15 15 15 15 15 16 15 16 16 16 16 16 16
16 16 16 16 16 16 15 15 15 15 15 15 15 15 15 15 15 14 14 14 15 14 14 14 14 14 14 14 15 15 15 15 15 15 15 15 15 15 15 15 16 16 16
16 16 16 16 15 15 15 15 15 15 15 15 15 15 15 15 15 14 14 14 14 14 14 14 14 14 14 14 14 14 14 14 15 15 15 15 15 15 15 15 15 15 15
16 16 16 16 15 15 15 15 15 15 15 15 15 15 15 14 14 14 14 14 14 14 14 14 14 14 14 14 14 14 14 14 14 14 14 15 15 15 15 15 15 15 15
16 16 16 16 16 15 15 15 15 15 15 15 15 15 15 15 14 14 14 14 14 14 14 14 14 14 14 14 14 14 14 14 14 14 14 14 14 14 15 15 15 15 14
16 16 16 16 16 15 15 15 15 15 15 15 15 15 15 14 14 14 14 14 14 14 14 13 13 13 14 14 14 14 14 13 13 14 14 14 14 14 14 14 14 14 14
16 16 16 16 16 16 15 15 15 15 15 15 15 15 15 15 14 14 14 14 14 14 14 13 13 13 13 14 14 14 14 13 13 13 13 14 14 14 14 14 14 14 14
16 16 16 15 16 16 15 15 15 15 15 15 15 15 16 15 14 14 14 14 14 14 13 13 13 13 13 13 13 14 14 14 13 13 13 13 13 14 13 13 13 13 13
16 16 16 15 15 15 15 15 15 15 15 15 15 15 16 16 15 14 14 14 14 13 13 13 13 13 13 13 13 13 13 13 13 13 13 13 13 13 13 13 13 13 13
16 15 15 15 15 15 15 15 15 15 15 15 15 15 15 15 15 15 14 14 14 13 13 13 13 13 13 13 13 13 13 13 13 13 13 13 13 13 13 13 13 13 13
16 15 15 15 15 15 15 15 15 15 15 15 15 15 14 15 15 15 15 14 14 13 13 13 13 13 13 13 13 13 13 13 13 13 13 13 13 13 13 13 13 12 12
15 15 15 15 15 15 15 15 15 15 14 14 14 14 14 14 14 14 14 14 14 13 13 13 13 13 13 12 12 13 13 13 13 13 13 13 13 12 12 12 12 12 12
15 15 15 15 15 15 15 14 14 14 14 14 14 14 14 14 14 14 14 14 13 13 13 13 12 12 12 12 12 12 12 13 12 12 12 12 12 12 12 12 12 12 12
15 15 15 15 15 15 15 14 14 14 14 14 14 14 14 14 13 13 13 13 14 14 13 13 12 12 12 12 12 12 12 12 12 12 12 12 12 12 12 12 12 11 11
15 15 15 15 15 15 14 14 14 14 14 14 14 13 13 13 13 13 13 13 13 14 13 12 12 12 12 12 12 11 11 12 12 12 12 12 12 12 11 11 11 11 11
15 15 15 15 15 14 14 14 14 14 14 14 14 13 13 13 13 13 12 12 12 13 13 12 11 11 11 11 11 11 11 11 11 11 11 11 11 11 11 11 11 11 11
15 15 15 14 14 14 14 14 14 13 13 13 13 13 13 13 13 12 12 12 12 12 12 12 11 11 11 11 11 11 11 11 11 11 11 11 11 11 11 11 10 10 10
15 14 14 14 14 14 14 13 13 13 13 13 12 12 12 13 12 12 12 12 12 11 11 11 11 11 11 11 11 10 10 10 10 10 10 10 10 10 10 10 10 10 10
14 14 14 14 14 13 13 13 13 13 13 12 12 12 12 12 12 12 12 12 11 11 11 11 11 11 10 10 10 10 10 10 10 10 10 10 10 10 10 10 10 10 9
14 14 14 14 13 13 13 13 13 12 12 12 12 12 12 12 12 11 11 11 11 11 11 10 10 10 10 10 10 10 9 9 9 9 9 9 9 9 9 9 9 9 9
14 14 14 13 13 13 13 13 12 12 12 12 12 12 12 12 12 11 11 11 11 10 10 10 10 10 10 10 10 9 9 9 9 9 9 8 9 9 8 8 8 8 8
14 13 13 13 13 13 13 13 12 12 12 11 11 11 11 11 11 11 11 11 11 10 10 10 9 9 9 9 9 9 9 9 8 8 8 8 8 8 8 8 8 8 8
14 13 13 13 13 13 13 12 12 12 11 11 11 11 11 11 11 11 11 10 10 10 10 9 9 9 9 9 9 8 8 8 8 8 8 7 7 7 7 7 7 7 7
13 13 13 13 13 13 12 12 12 11 11 11 11 11 11 10 11 10 10 10 10 10 10 10 9 9 9 9 8 8 8 8 7 7 7 7 7 7 7 7 7 7 7
13 13 13 12 12 12 12 12 12 11 11 11 11 10 10 10 10 10 10 10 10 10 10 9 9 9 9 8 8 8 7 7 7 7 7 7 6 6 6 6 6 6 6
13 13 12 12 12 12 12 12 11 11 11 10 10 10 10 10 10 10 9 9 9 9 9 9 9 8 8 8 8 7 7 7 7 6 6 6 6 6 5 6 6 6 5
Wind_Speed
3 4 4 4 4 4 4 4 4 6 6 7 7 7 8 9 9 9 10 14 14 14 13 13 13 13 13 13 12 12 12 12 11 11 10 10 10 9 9 8 7 6 6
3 3 4 4 4 4 4 4 5 5 5 5 6 7 7 8 8 8 9 10 13 14 14 13 13 13 13 13 13 12 12 12 12 11 10 9 9 8 8 7 7 6 6
3 3 3 3 3 3 4 3 4 4 4 4 5 6 6 7 7 8 8 7 8 12 13 13 13 13 12 12 12 12 12 12 11 11 10 9 8 7 7 7 7 6 6
2 3 2 3 3 3 3 3 2 3 3 3 4 4 5 5 6 6 6 7 7 7 10 12 13 13 12 12 12 11 11 11 11 11 11 9 8 7 7 7 6 6 6
2 2 2 2 3 3 2 2 2 2 3 3 3 3 3 3 4 4 5 7 7 7 7 9 10 12 12 12 11 11 11 11 11 11 11 10 9 7 7 6 7 7 6
2 2 2 3 3 2 2 2 3 2 2 2 3 3 3 3 3 3 4 5 6 6 7 6 6 8 10 11 11 10 10 10 10 10 11 10 10 8 7 7 7 7 6
2 2 2 2 2 2 2 3 3 4 2 2 2 2 3 3 3 3 3 3 4 5 5 6 5 5 6 8 10 10 10 10 10 10 10 10 10 9 9 8 8 8 7
2 2 2 2 3 2 3 3 2 2 2 2 1 1 1 2 2 2 2 2 3 4 4 5 5 5 5 5 9 10 9 10 9 10 10 10 10 9 8 8 8 8 8
2 2 2 2 3 3 3 3 3 3 2 2 2 2 1 0 1 2 2 1 2 2 3 3 4 5 5 5 6 8 9 9 9 9 9 9 9 8 7 7 7 7 7
2 2 2 2 3 2 3 3 3 2 2 2 1 1 2 1 1 1 1 1 2 2 2 3 3 4 5 5 6 9 9 9 8 8 9 8 8 8 7 7 6 6 6
2 2 2 2 2 2 3 2 3 3 3 2 1 1 1 1 2 1 1 1 1 1 1 2 2 3 4 4 5 8 8 8 8 8 8 8 8 7 7 7 6 6 6
2 2 2 2 2 2 3 2 3 3 2 2 1 1 1 1 1 1 1 1 0 0 1 1 2 3 3 4 6 8 7 7 7 7 7 8 8 8 7 7 6 6 5
2 2 2 2 2 2 2 2 2 2 2 2 2 1 1 1 1 1 1 1 1 0 0 0 2 2 2 3 4 5 5 6 6 6 6 6 7 7 7 6 6 6 6
2 2 2 2 2 2 2 2 2 2 2 2 2 1 1 1 1 1 1 1 2 1 0 1 1 2 2 3 4 3 4 5 5 5 6 6 6 6 6 5 5 6 6
2 2 2 2 2 2 2 2 2 2 2 1 1 2 2 1 1 1 1 2 3 2 1 0 1 1 1 2 3 3 4 6 5 5 5 5 5 6 6 5 4 5 5
2 2 2 2 2 2 2 2 2 1 2 1 0 1 1 1 1 1 2 2 3 3 2 1 1 1 1 1 2 3 3 4 5 5 5 5 5 5 5 5 4 4 4
3 3 2 2 2 2 2 3 2 2 2 2 2 1 1 1 1 1 1 1 2 2 2 2 1 1 1 1 1 2 3 2 3 4 4 5 4 4 4 4 3 3 3
3 3 3 3 2 2 3 3 3 3 2 2 2 2 1 1 1 1 1 2 2 2 3 2 2 1 2 2 2 2 2 2 2 3 3 3 4 4 4 3 3 3 3
3 3 3 3 3 3 3 3 3 3 2 2 2 2 2 2 2 2 2 2 2 2 2 3 2 1 2 2 2 2 2 2 2 0 1 2 3 3 4 4 4 3 3
4 4 3 3 3 3 3 3 3 3 3 2 2 2 2 2 2 2 2 2 2 2 2 2 2 2 2 2 2 2 2 2 2 2 1 1 1 1 2 3 3 4 4
4 4 3 3 3 3 2 3 3 3 3 3 2 2 1 1 2 1 2 2 2 2 2 3 3 3 3 2 3 3 3 3 2 2 3 2 1 1 1 1 2 3 3
4 4 4 3 3 2 2 2 4 4 4 3 2 2 1 1 1 1 1 3 3 3 3 3 4 4 4 4 3 4 4 4 3 2 4 3 2 2 2 2 2 2 2
5 4 4 4 4 3 4 4 4 4 4 3 3 2 1 1 2 1 1 3 3 3 4 5 5 5 5 4 4 4 4 5 4 3 4 4 2 3 2 2 1 0 1
5 5 5 5 4 4 5 5 4 5 4 3 3 3 2 2 1 1 1 1 1 1 3 4 4 4 4 5 4 5 5 5 4 2 3 4 3 4 3 2 2 2 2
5 5 5 5 5 5 6 6 5 3 4 4 3 3 3 2 1 1 2 2 2 1 1 1 2 2 3 4 4 3 3 4 4 3 2 4 4 4 4 3 2 4 3
5 5 5 5 5 5 7 7 6 3 4 3 3 3 2 2 1 2 4 3 4 3 3 2 2 3 3 2 4 4 4 5 4 3 2 3 4 4 4 3 3 3 4
Wind_Direction
102 100 100 101 94 94 99 89 85 81 74 71 68 66 69 63 63 62 62 55 49 50 55 58 57 58 58 59 59 56 55 55 55 56 57 57 56 58 59 59 58 57 55
105 104 104 102 94 91 93 99 90 86 79 74 69 67 65 65 61 61 62 66 58 50 49 53 54 56 57 58 58 57 56 56 55 52 51 51 54 57 59 58 56 56 55
121 113 105 101 99 105 105 95 94 91 89 87 78 68 68 62 60 60 59 55 64 63 52 50 50 51 54 56 57 57 56 54 53 50 47 47 51 53 56 59 58 57 57
120 118 115 107 107 107 106 101 101 104 101 90 77 67 70 70 63 59 62 64 55 55 65 57 49 47 49 52 54 55 54 52 51 47 43 44 48 53 53 56 56 55 54
140 141 132 134 131 128 118 119 110 107 102 95 90 80 68 67 64 63 63 62 62 57 63 72 63 51 46 46 47 49 49 49 48 44 40 41 47 55 55 54 54 54 53
134 129 147 157 142 134 132 132 121 113 108 115 107 93 83 82 73 61 59 63 57 54 52 53 61 67 55 43 40 41 43 45 44 42 40 41 44 49 54 55 54 53 53
141 135 157 152 157 152 147 150 141 142 151 157 145 121 106 83 74 76 61 60 64 56 56 56 47 46 64 61 42 36 37 39 41 42 42 44 45 48 50 52 50 49 49
151 155 174 168 165 160 162 161 163 175 163 199 227 220 172 139 98 83 76 56 55 69 55 50 49 48 41 48 54 40 34 34 36 38 39 42 46 48 46 45 45 45 45
161 171 184 177 172 180 173 179 182 194 194 196 256 290 283 329 119 114 76 74 57 52 54 45 40 37 40 41 42 46 36 31 32 35 37 38 40 40 40 39 38 39 40
160 174 179 180 174 181 177 189 186 197 213 205 196 289 316 1 276 157 135 93 49 36 35 38 33 32 32 36 43 40 39 33 32 34 34 35 39 38 35 32 33 35 37
144 170 181 177 171 179 183 185 188 204 210 228 217 193 194 229 265 257 188 151 135 97 51 35 35 30 31 33 33 40 40 35 32 31 29 29 30 31 30 29 31 32 35
157 165 174 179 177 181 183 188 188 191 209 210 222 205 217 230 230 241 244 229 265 88 94 49 30 37 37 40 40 41 39 34 28 26 24 22 23 25 26 27 31 35 37
166 175 178 183 182 176 171 178 180 180 184 196 210 212 235 250 257 254 255 263 273 236 120 118 73 53 42 36 41 36 42 31 24 21 19 19 19 16 19 24 31 36 35
169 163 172 174 166 163 165 167 181 180 182 186 198 210 241 251 243 245 259 263 264 263 210 44 80 51 41 41 36 12 42 37 20 15 12 14 16 18 23 27 35 38 33
160 164 164 161 156 167 172 175 184 179 182 194 195 201 222 230 221 233 241 265 279 279 294 350 31 42 34 40 21 15 27 42 27 14 11 13 17 23 26 32 38 37 32
155 163 164 164 158 161 160 167 178 176 173 162 192 221 225 227 205 209 229 259 277 282 284 315 329 8 18 3 20 355 17 52 34 24 22 20 20 21 24 31 33 30 26
170 173 177 175 160 159 158 160 166 161 176 172 174 190 199 234 217 213 219 236 263 274 263 283 304 319 307 329 354 329 341 354 35 41 29 25 23 17 16 19 19 18 19
184 185 175 172 171 176 177 174 176 178 191 200 201 202 204 190 220 234 225 228 244 260 263 275 279 293 305 323 319 313 320 332 350 50 42 32 25 20 13 10 10 11 10
185 187 185 185 190 195 196 193 191 194 200 205 211 217 225 215 217 213 222 233 240 240 257 263 278 296 290 305 297 292 290 303 309 31 91 58 34 23 23 25 26 18 13
191 193 193 197 201 203 203 202 206 209 210 211 223 234 246 243 243 234 226 238 238 235 244 258 271 275 280 293 285 285 286 288 302 314 329 327 24 48 37 34 31 28 24
201 197 197 197 200 208 207 212 208 213 215 214 219 232 240 291 346 310 272 252 238 239 244 257 266 274 276 282 284 281 283 283 283 303 293 298 301 314 335 18 15 17 14
204 198 199 199 200 200 151 222 234 215 218 218 224 233 213 194 182 213 294 310 295 263 258 257 264 269 279 284 291 283 281 283 286 302 291 291 300 301 314 332 38 29 353
201 202 206 207 210 187 164 193 231 234 227 230 235 233 229 220 232 251 209 220 247 269 280 275 274 279 285 289 283 278 280 286 291 312 289 280 283 285 298 346 65 1 320
199 205 209 210 208 189 168 186 208 227 224 224 232 238 225 216 195 280 264 256 273 268 255 262 276 289 297 301 287 280 279 274 273 284 292 282 288 290 289 283 181 217 271
203 205 204 206 205 193 167 175 198 211 218 219 224 228 235 232 96 295 258 256 265 291 22 349 323 310 326 315 295 272 269 268 275 268 276 283 290 292 284 269 233 208 236
206 205 204 207 207 206 168 176 202 211 219 219 220 220 209 234 188 259 253 254 260 268 267 249 244 243 254 266 269 270 275 273 281 278 282 283 288 294 283 270 281 269 262
Height
1559 1559 1560 1559 1560 1560 1560 1560 1560 1560 1560 1559 1559 1558 1558 1557 1557 1556 1554 1553 1552 1550 1549 1548 1547 1546 1545 1544 1543 1542 1541 1540 1540 1539 1539 1538 1538 1538 1538 1538 1538 1538 1538
1560 1560 1561 1560 1561 1561 1561 1561 1561 1561 1561 1560 1560 1560 1559 1559 1558 1557 1556 1555 1553 1552 1551 1550 1549 1547 1546 1545 1544 1543 1542 1541 1540 1539 1539 1538 1537 1537 1537 1537 1537 1537 1537
1561 1561 1562 1562 1562 1562 1562 1562 1562 1562 1562 1561 1561 1561 1560 1560 1559 1559 1558 1557 1556 1554 1553 1552 1550 1549 1548 1547 1546 1545 1543 1542 1541 1539 1538 1537 1536 1536 1536 1536 1536 1536 1536
1562 1562 1562 1562 1562 1562 1562 1562 1563 1563 1563 1563 1563 1562 1562 1561 1561 1560 1559 1559 1557 1556 1555 1553 1552 1551 1549 1548 1547 1546 1545 1543 1541 1539 1537 1535 1533 1534 1534 1535 1535 1536 1536
1562 1562 1562 1563 1563 1563 1563 1563 1563 1564 1564 1563 1563 1563 1563 1562 1562 1561 1561 1560 1559 1558 1557 1555 1553 1552 1551 1550 1548 1547 1546 1544 1542 1539 1536 1533 1532 1532 1533 1534 1535 1535 1535
1562 1562 1562 1563 1563 1563 1563 1563 1563 1563 1564 1564 1564 1564 1563 1563 1563 1562 1562 1561 1560 1559 1558 1556 1555 1554 1552 1551 1549 1548 1546 1545 1543 1540 1536 1533 1532 1532 1533 1534 1535 1535 1535
1562 1562 1562 1563 1563 1563 1563 1563 1563 1564 1564 1564 1565 1565 1565 1564 1564 1563 1562 1562 1561 1560 1559 1557 1556 1555 1554 1552 1550 1549 1547 1545 1543 1541 1538 1535 1533 1533 1534 1534 1535 1535 1535
1562 1562 1562 1562 1563 1563 1563 1563 1563 1564 1564 1564 1565 1565 1565 1566 1564 1564 1563 1562 1562 1561 1560 1559 1558 1556 1554 1553 1551 1550 1548 1546 1545 1543 1540 1538 1536 1535 1535 1535 1535 1535 1535
1561 1561 1561 1562 1562 1562 1563 1563 1563 1563 1564 1564 1565 1565 1565 1564 1565 1565 1564 1563 1562 1561 1560 1559 1558 1557 1555 1554 1552 1550 1549 1547 1546 1544 1542 1540 1539 1538 1537 1536 1536 1535 1535
1560 1560 1560 1561 1561 1562 1562 1562 1562 1563 1563 1564 1563 1563 1564 1564 1564 1565 1565 1563 1562 1561 1560 1559 1558 1557 1555 1554 1552 1551 1549 1548 1546 1545 1543 1542 1540 1539 1538 1536 1535 1535 1534
1559 1559 1560 1560 1560 1561 1561 1561 1561 1562 1562 1563 1563 1563 1563 1563 1563 1564 1564 1564 1562 1561 1560 1559 1557 1556 1555 1554 1552 1551 1549 1548 1546 1545 1544 1542 1540 1539 1537 1536 1535 1534 1534
1558 1558 1559 1559 1559 1560 1560 1560 1560 1560 1561 1561 1561 1562 1562 1562 1563 1563 1563 1562 1562 1561 1559 1558 1557 1556 1554 1553 1552 1550 1549 1548 1546 1545 1543 1542 1540 1538 1537 1535 1534 1534 1533
1558 1557 1558 1558 1558 1558 1559 1559 1559 1559 1559 1559 1560 1561 1561 1561 1561 1561 1562 1561 1561 1560 1559 1558 1557 1555 1554 1553 1551 1550 1549 1547 1546 1545 1543 1541 1540 1537 1535 1534 1533 1533 1533
1557 1557 1556 1557 1557 1557 1557 1557 1558 1558 1558 1558 1559 1559 1559 1560 1560 1560 1560 1560 1560 1560 1559 1558 1556 1555 1554 1552 1551 1550 1548 1547 1545 1544 1542 1541 1539 1536 1534 1533 1532 1532 1532
1555 1555 1555 1555 1556 1555 1556 1556 1556 1556 1557 1557 1557 1557 1558 1558 1558 1558 1558 1559 1560 1558 1558 1557 1556 1554 1553 1551 1550 1549 1548 1546 1544 1543 1542 1540 1538 1536 1534 1533 1533 1532 1532
1554 1554 1554 1554 1554 1554 1554 1554 1555 1555 1555 1555 1555 1556 1556 1556 1556 1556 1556 1557 1557 1557 1556 1555 1554 1553 1552 1551 1549 1548 1547 1545 1544 1542 1541 1539 1538 1536 1535 1534 1533 1532 1531
1553 1553 1553 1553 1554 1553 1553 1553 1554 1554 1554 1554 1554 1554 1554 1554 1554 1554 1554 1555 1555 1555 1554 1554 1553 1551 1550 1549 1548 1547 1546 1544 1543 1541 1540 1538 1537 1535 1534 1533 1532 1531 1530
1552 1552 1552 1552 1552 1552 1552 1552 1552 1552 1553 1553 1553 1553 1553 1552 1553 1553 1553 1553 1553 1552 1552 1551 1551 1550 1548 1547 1546 1545 1544 1543 1541 1539 1538 1537 1535 1534 1533 1532 1531 1530 1529
1550 1550 1551 1551 1551 1551 1551 1551 1551 1551 1551 1551 1551 1551 1551 1551 1551 1551 1551 1551 1551 1550 1550 1549 1549 1547 1546 1545 1544 1543 1542 1541 1540 1538 1536 1535 1533 1532 1531 1530 1529 1528 1527
1548 1549 1549 1549 1549 1549 1550 1550 1550 1550 1550 1550 1550 1550 1549 1549 1549 1549 1549 1549 1548 1548 1547 1547 1546 1546 1544 1543 1542 1541 1540 1539 1538 1537 1535 1533 1531 1530 1528 1527 1526 1525 1524
1546 1546 1547 1547 1547 1547 1548 1548 1548 1548 1548 1548 1548 1548 1547 1547 1547 1547 1547 1546 1546 1545 1545 1545 1544 1543 1542 1541 1540 1539 1538 1537 1535 1534 1533 1531 1530 1528 1526 1525 1523 1522 1521
1544 1544 1544 1545 1545 1545 1545 1545 1546 1546 1546 1546 1546 1546 1545 1545 1545 1544 1544 1544 1543 1543 1543 1542 1542 1541 1540 1539 1537 1537 1536 1535 1534 1532 1530 1529 1527 1526 1524 1523 1521 1519 1518
1541 1541 1542 1542 1542 1543 1543 1543 1543 1544 1544 1544 1544 1544 1543 1543 1542 1542 1541 1541 1541 1540 1540 1540 1539 1538 1537 1536 1535 1534 1533 1532 1530 1529 1527 1526 1525 1523 1522 1520 1518 1516 1515
1538 1538 1539 1539 1540 1540 1540 1540 1541 1541 1541 1541 1542 1541 1541 1541 1540 1539 1539 1539 1538 1537 1537 1536 1535 1535 1534 1533 1532 1531 1530 1528 1527 1526 1524 1523 1522 1520 1518 1516 1514 1513 1511
1535 1535 1536 1536 1536 1537 1537 1538 1538 1538 1538 1539 1539 1538 1538 1538 1537 1537 1537 1536 1535 1535 1534 1533 1531 1531 1530 1529 1528 1527 1526 1525 1524 1522 1521 1520 1518 1516 1515 1513 1511 1509 1508
1532 1533 1533 1533 1534 1534 1534 1534 1535 1535 1536 1536 1536 1535 1535 1535 1534 1534 1534 1533 1532 1532 1530 1529 1528 1527 1526 1525 1524 1523 1523 1522 1521 1520 1517 1516 1515 1513 1512 1510 1508 1507 1505